TimeCST,TemperatureF,Dew PointF,Humidity,Sea Level PressureIn,VisibilityMPH,Wind Direction,Wind SpeedMPH,Gust SpeedMPH,PrecipitationIn,Events,Conditions,WindDirDegrees,DateUTC
12:15 AM,60.8,57.2,88,30.15,6.0,NE,16.1,25.3,N/A,,Mostly Cloudy,50,2013-12-08 06:15:00
12:35 AM,60.8,57.2,88,30.14,4.0,NE,19.6,-,N/A,,Mostly Cloudy,50,2013-12-08 06:35:00
12:55 AM,60.8,57.2,88,30.13,9.0,NE,17.3,25.3,N/A,,Mostly Cloudy,50,2013-12-08 06:55:00
1:15 AM,60.8,57.2,88,30.12,10.0,NE,18.4,25.3,N/A,,Mostly Cloudy,50,2013-12-08 07:15:00
1:35 AM,60.8,57.2,88,30.11,10.0,ENE,18.4,25.3,N/A,,Mostly Cloudy,60,2013-12-08 07:35:00
1:55 AM,60.8,57.2,88,30.10,10.0,ENE,19.6,-,N/A,,Mostly Cloudy,60,2013-12-08 07:55:00
2:15 AM,60.8,57.2,88,30.09,8.0,ENE,18.4,26.5,N/A,,Mostly Cloudy,60,2013-12-08 08:15:00
2:35 AM,60.8,57.2,88,30.08,9.0,ENE,19.6,27.6,N/A,,Mostly Cloudy,60,2013-12-08 08:35:00
2:55 AM,62.6,59.0,88,30.06,10.0,ENE,24.2,29.9,N/A,,Mostly Cloudy,70,2013-12-08 08:55:00
3:15 AM,62.6,59.0,88,30.06,10.0,ENE,23.0,-,N/A,,Mostly Cloudy,70,2013-12-08 09:15:00
3:35 AM,62.6,59.0,88,30.06,10.0,ENE,20.7,-,N/A,,Mostly Cloudy,70,2013-12-08 09:35:00
3:55 AM,62.6,59.0,88,30.06,10.0,ENE,21.9,-,N/A,,Mostly Cloudy,70,2013-12-08 09:55:00
4:15 AM,62.6,59.0,88,30.06,10.0,ENE,20.7,-,N/A,,Mostly Cloudy,70,2013-12-08 10:15:00
4:35 AM,62.6,59.0,88,30.06,10.0,ENE,23.0,-,N/A,,Mostly Cloudy,70,2013-12-08 10:35:00
4:55 AM,64.4,60.8,88,30.06,9.0,ENE,18.4,25.3,N/A,,Mostly Cloudy,60,2013-12-08 10:55:00
5:15 AM,64.4,60.8,88,30.06,4.0,ENE,18.4,-,N/A,,Mostly Cloudy,60,2013-12-08 11:15:00
5:35 AM,62.6,60.8,94,30.06,3.0,ENE,20.7,-,N/A,,Mostly Cloudy,60,2013-12-08 11:35:00
5:55 AM,62.6,60.8,94,30.06,2.0,ENE,18.4,25.3,N/A,,Mostly Cloudy,60,2013-12-08 11:55:00
6:15 AM,64.4,60.8,88,30.06,2.5,NE,17.3,25.3,N/A,,Mostly Cloudy,50,2013-12-08 12:15:00
6:35 AM,64.4,60.8,88,30.07,4.0,NE,18.4,26.5,N/A,,Mostly Cloudy,50,2013-12-08 12:35:00
6:55 AM,64.4,60.8,88,30.07,4.0,NE,13.8,23.0,N/A,,Mostly Cloudy,40,2013-12-08 12:55:00
7:15 AM,62.6,60.8,94,30.08,1.2,NE,13.8,24.2,N/A,,Mostly Cloudy,40,2013-12-08 13:15:00
7:35 AM,64.4,60.8,88,30.08,2.0,NNE,13.8,20.7,N/A,,Mostly Cloudy,20,2013-12-08 13:35:00
7:55 AM,62.6,60.8,94,30.07,1.5,NNE,12.7,23.0,N/A,,Mostly Cloudy,30,2013-12-08 13:55:00
8:15 AM,62.6,60.8,94,30.07,2.0,NNE,11.5,21.9,N/A,,Mostly Cloudy,30,2013-12-08 14:15:00
8:35 AM,62.6,60.8,94,30.08,3.0,NNE,12.7,23.0,N/A,,Mostly Cloudy,30,2013-12-08 14:35:00
8:55 AM,62.6,60.8,94,30.09,8.0,NNE,11.5,21.9,N/A,,Mostly Cloudy,30,2013-12-08 14:55:00
9:15 AM,62.6,60.8,94,30.08,4.0,NNE,12.7,19.6,N/A,,Mostly Cloudy,30,2013-12-08 15:15:00
9:35 AM,62.6,60.8,94,30.08,2.5,NNE,11.5,19.6,N/A,,Scattered Clouds,30,2013-12-08 15:35:00
9:55 AM,64.4,60.8,88,30.08,10.0,NNE,12.7,20.7,N/A,,Mostly Cloudy,30,2013-12-08 15:55:00
10:15 AM,64.4,60.8,88,30.07,10.0,NE,12.7,24.2,N/A,,Overcast,40,2013-12-08 16:15:00
10:35 AM,64.4,60.8,88,30.07,8.0,NE,13.8,26.5,N/A,,Mostly Cloudy,40,2013-12-08 16:35:00
10:55 AM,64.4,60.8,88,30.06,7.0,NE,15.0,24.2,N/A,,Mostly Cloudy,40,2013-12-08 16:55:00
11:15 AM,64.4,60.8,88,30.05,10.0,NNE,12.7,26.5,N/A,,Mostly Cloudy,30,2013-12-08 17:15:00
11:35 AM,64.4,60.8,88,30.05,10.0,NE,13.8,21.9,N/A,,Overcast,40,2013-12-08 17:35:00
11:55 AM,64.4,60.8,88,30.04,10.0,NE,17.3,-,N/A,,Overcast,50,2013-12-08 17:55:00
12:15 PM,64.4,60.8,88,30.03,10.0,NNE,10.4,20.7,N/A,,Overcast,30,2013-12-08 18:15:00
12:35 PM,64.4,60.8,88,30.02,10.0,NNE,10.4,19.6,N/A,,Overcast,30,2013-12-08 18:35:00
12:55 PM,66.2,60.8,83,30.01,10.0,NNE,12.7,18.4,N/A,,Overcast,30,2013-12-08 18:55:00
1:15 PM,66.2,60.8,83,30.00,10.0,NNE,9.2,19.6,N/A,,Overcast,30,2013-12-08 19:15:00
1:35 PM,66.2,60.8,83,29.99,10.0,NNE,10.4,18.4,N/A,,Overcast,30,2013-12-08 19:35:00
1:55 PM,66.2,62.6,88,30.00,9.0,NNE,9.2,17.3,N/A,,Overcast,30,2013-12-08 19:55:00
2:15 PM,66.2,62.6,88,29.99,3.0,NNE,9.2,17.3,N/A,,Overcast,30,2013-12-08 20:15:00
2:35 PM,64.4,62.6,94,30.00,1.8,NNE,10.4,17.3,N/A,,Overcast,30,2013-12-08 20:35:00
2:55 PM,64.4,62.6,94,29.99,3.0,NE,12.7,20.7,N/A,,Overcast,40,2013-12-08 20:55:00
3:15 PM,64.4,62.6,94,29.99,3.0,NNE,11.5,20.7,N/A,,Overcast,30,2013-12-08 21:15:00
3:35 PM,64.4,62.6,94,29.98,3.0,NNE,11.5,20.7,N/A,,Overcast,30,2013-12-08 21:35:00
3:55 PM,64.4,62.6,94,29.98,8.0,NE,12.7,19.6,N/A,,Overcast,40,2013-12-08 21:55:00
4:15 PM,64.4,60.8,88,29.98,9.0,NNE,11.5,23.0,N/A,,Overcast,30,2013-12-08 22:15:00
4:35 PM,64.4,62.6,94,29.98,10.0,NE,11.5,21.9,N/A,,Overcast,40,2013-12-08 22:35:00
4:55 PM,64.4,62.6,94,29.99,10.0,NE,13.8,20.7,N/A,,Overcast,50,2013-12-08 22:55:00
5:15 PM,64.4,62.6,94,29.98,10.0,NE,13.8,19.6,N/A,,Overcast,50,2013-12-08 23:15:00
5:35 PM,66.2,62.6,88,29.99,9.0,NNE,9.2,18.4,N/A,,Overcast,30,2013-12-08 23:35:00
5:55 PM,66.2,62.6,88,30.00,10.0,NE,10.4,20.7,N/A,,Overcast,40,2013-12-08 23:55:00
6:15 PM,66.2,62.6,88,30.00,10.0,NNE,10.4,20.7,N/A,,Overcast,30,2013-12-09 00:15:00
6:35 PM,66.2,62.6,88,30.01,10.0,NE,10.4,21.9,N/A,,Overcast,40,2013-12-09 00:35:00
6:55 PM,66.2,62.6,88,30.02,10.0,NNE,9.2,19.6,N/A,,Overcast,30,2013-12-09 00:55:00
7:15 PM,66.2,62.6,88,30.03,10.0,NNE,8.1,18.4,N/A,,Overcast,30,2013-12-09 01:15:00
7:35 PM,66.2,64.4,94,30.03,10.0,NE,12.7,18.4,N/A,,Overcast,40,2013-12-09 01:35:00
7:55 PM,66.2,64.4,94,30.03,9.0,NNE,12.7,19.6,N/A,,Overcast,30,2013-12-09 01:55:00
8:15 PM,66.2,62.6,88,30.03,6.0,NE,13.8,21.9,N/A,,Mostly Cloudy,50,2013-12-09 02:15:00
8:35 PM,66.2,62.6,88,30.03,8.0,NE,10.4,17.3,N/A,,Overcast,40,2013-12-09 02:35:00
8:55 PM,66.2,62.6,88,30.03,10.0,NE,10.4,19.6,N/A,,Overcast,40,2013-12-09 02:55:00
9:15 PM,66.2,62.6,88,30.03,10.0,NE,13.8,-,N/A,,Overcast,40,2013-12-09 03:15:00
9:35 PM,66.2,64.4,94,30.03,10.0,NNE,11.5,19.6,N/A,,Overcast,30,2013-12-09 03:35:00
9:55 PM,66.2,64.4,94,30.04,8.0,NNE,10.4,18.4,N/A,,Overcast,30,2013-12-09 03:55:00
10:15 PM,66.2,64.4,94,30.04,10.0,NE,8.1,20.7,N/A,,Overcast,40,2013-12-09 04:15:00
10:35 PM,68.0,64.4,88,30.03,10.0,NE,13.8,-,N/A,,Overcast,50,2013-12-09 04:35:00
10:55 PM,68.0,64.4,88,30.04,10.0,NE,8.1,16.1,N/A,,Overcast,40,2013-12-09 04:55:00
11:15 PM,68.0,64.4,88,30.04,10.0,NNE,10.4,17.3,N/A,,Overcast,30,2013-12-09 05:15:00
11:35 PM,68.0,64.4,88,30.03,10.0,NNE,9.2,17.3,N/A,,Overcast,30,2013-12-09 05:35:00
11:55 PM,68.0,64.4,88,30.04,10.0,NE,10.4,18.4,N/A,,Overcast,40,2013-12-09 05:55:00